SCP
1 1 1 0 0 0 0 0 0 0 0 0 0 0 0 0 0 0 0 0 -0 -0 -0 0 -0 -0 -0 -0 -0 -0 -0 -0 0 -0 -0 -0 -0 -0 -0 -0 -0 -0 -0 -0 -0 -0 -0 -0 -0
1 1 0 0 0 0 0 0 0 0 0 0 0 0 0 1 0 0 0 0 -0 -0 0 0 -0 -0 -0 -0 -0 -0 -0 -0 0 0 -0 -0 -0 -0 -0 -0 -0 -0 -0 -0 -0 0 0 -0 0
1 1 0 0 0 0 0 0 0 0 0 0 0 0 0 1 0 0 0 0 0 0 0 0 -0 -0 -0 -0 -0 0 0 0 0 0 0 -0 0 0 0 0 0 0 0 -0 0 0 0 0 0
1 1 0 0 0 0 0 0 0 0 0 0 0 1 1 1 1 0 0 0 0 0 0 0 -0 -0 -0 0 0 0 0 0 0 0 0 0 0 0 0 0 0 0 0 -0 0 0 -0 0 0
1 1 0 0 0 0 0 0 0 0 0 0 0 1 1 1 1 0 0 0 0 0 0 0 0 0 0 0 0 0 0 0 0 0 0 0 0 0 0 0 0 0 0 0 0 0 0 0 0
2 1 0 0 0 0 0 0 0 0 0 0 0 2 1 1 1 1 0 0 0 0 0 -0 -0 -0 0 0 0 0 0 0 0 0 0 0 0 0 0 0 0 0 0 0 0 0 0 -0 -0
1 1 0 0 0 0 0 0 0 0 0 0 1 1 1 1 2 2 1 0 0 0 0 0 -0 -0 -0 -0 0 -0 -0 -0 -0 -0 -0 0 0 0 0 0 0 0 -0 -0 -0 -0 -0 -0 0
1 1 0 0 0 0 0 0 0 0 0 0 1 2 1 1 2 2 3 2 0 0 0 0 0 -0 -0 -0 -0 -0 -0 -0 -0 -0 -0 0 -0 -0 -0 -0 -0 -0 -0 -0 -0 -0 0 0 0
1 1 0 0 0 0 0 0 0 0 0 0 0 0 0 1 2 1 3 3 1 0 0 0 0 -0 -0 -0 -0 -0 -0 -0 -0 0 0 0 -0 -0 0 -0 -0 -0 -0 -0 -0 0 0 0 0
0 0 0 0 0 0 0 0 0 0 0 0 0 1 1 1 2 2 2 3 2 0 1 0 0 0 0 0 -0 -0 0 0 -0 0 -0 -0 0 0 0 0 -0 0 0 0 0 0 0 0 0
0 0 0 0 0 0 0 0 0 0 0 0 0 1 1 1 2 2 2 2 3 1 1 1 0 0 0 0 -0 0 0 0 0 0 -0 -0 0 0 0 0 0 0 0 0 0 0 0 0 0
0 0 0 0 0 0 0 0 0 0 0 0 0 0 1 1 1 1 1 1 2 2 1 1 1 0 0 0 0 0 0 0 0 0 0 0 0 0 0 0 0 0 0 0 0 0 0 0 0
0 0 0 0 0 0 0 0 0 0 0 0 0 0 0 1 1 1 1 1 1 1 1 1 1 1 0 0 0 0 0 0 0 0 0 0 0 0 0 0 0 0 0 0 0 0 0 0 0
0 0 0 0 0 0 0 0 0 0 0 0 0 0 0 0 1 1 1 1 1 1 1 1 1 1 1 0 0 0 0 0 0 0 0 0 0 0 0 0 0 0 0 0 0 0 0 0 0
-0 -0 0 0 0 0 0 0 0 0 0 0 0 0 0 0 0 1 1 1 1 1 1 1 1 1 1 1 0 1 1 0 0 0 0 0 0 0 0 0 0 0 0 0 0 0 0 0 0
0 0 0 0 0 0 0 0 0 0 0 0 0 0 0 0 0 0 1 1 1 1 1 1 1 1 1 1 1 1 1 1 0 0 0 0 0 0 0 0 0 0 0 0 0 0 0 0 0
0 0 0 0 0 0 0 0 0 0 0 0 0 0 0 0 0 0 0 1 1 1 1 1 1 1 1 1 1 1 1 1 0 0 0 0 0 0 0 0 0 0 0 0 0 0 0 0 0
0 0 -0 0 0 0 0 0 0 0 0 0 0 0 0 0 0 0 0 0 1 1 2 1 1 1 1 1 1 1 1 1 1 1 0 0 0 0 0 0 0 0 0 0 0 0 0 0 0
0 0 0 0 0 -0 -0 0 0 0 0 0 0 0 0 0 0 0 0 0 0 2 2 1 1 1 1 1 1 1 1 1 1 1 1 0 0 0 0 0 0 0 0 0 0 0 0 0 0
0 0 0 0 0 0 0 0 0 0 0 0 0 0 0 0 0 0 0 0 0 1 2 2 2 2 1 1 1 1 1 1 0 0 1 1 1 1 1 1 0 0 0 0 0 0 0 0 0
0 0 0 0 0 0 0 0 0 0 0 0 0 0 0 0 0 0 0 0 0 0 1 2 2 2 2 1 1 0 1 1 1 1 1 1 1 1 0 0 0 0 0 0 0 0 0 0 0
0 0 0 0 0 0 0 0 0 0 0 0 0 0 0 0 0 0 0 0 0 0 0 0 1 2 2 1 1 1 1 1 1 1 1 0 0 0 0 0 0 0 0 0 0 0 0 0 0
0 0 0 0 0 0 0 0 0 0 0 0 0 0 0 0 0 0 0 0 0 0 0 0 0 1 0 0 1 1 1 0 0 0 0 0 0 0 0 0 0 0 0 0 0 0 0 0 0
0 0 0 0 0 0 0 0 0 0 0 0 0 0 0 0 0 0 0 0 0 0 0 0 0 0 0 0 0 0 0 0 0 0 0 0 0 0 0 0 0 0 0 0 0 0 0 0 0
0 0 0 0 0 0 0 0 0 0 0 0 0 0 0 0 0 0 0 0 0 0 0 0 0 0 0 0 0 0 0 0 0 0 0 0 0 0 0 0 0 0 0 0 0 0 0 0 0
0 0 0 0 0 0 0 0 0 0 0 0 0 0 0 0 0 0 0 0 0 0 0 0 0 0 0 0 0 0 0 0 0 0 0 0 0 0 0 0 0 0 0 0 0 0 0 0 0
0 0 0 0 0 0 0 0 0 -0 0 0 0 0 0 0 0 0 0 0 0 0 0 0 0 0 0 0 0 0 0 0 0 0 0 0 0 0 0 0 0 0 0 0 0 0 0 0 0
0 0 0 0 0 0 0 0 0 0 0 0 0 0 0 0 0 0 0 0 0 0 0 0 0 0 0 0 0 0 0 0 0 0 0 0 0 0 0 0 0 0 0 0 0 0 0 0 0
0 0 0 0 0 0 0 0 0 0 0 0 0 0 0 0 0 0 0 0 0 0 0 0 0 0 0 0 0 0 0 0 0 0 0 0 0 0 0 0 0 0 0 0 0 0 0 0 0
0 0 0 0 0 0 0 0 0 0 0 0 0 0 0 0 0 0 0 0 0 0 0 0 0 0 0 0 0 0 0 0 0 0 0 0 0 0 0 0 0 0 0 0 0 0 0 0 0
Wind_Speed_500mb
26 24 10 8 3 7 15 14 13 8 5 17 17 17 17 40 13 19 47 38 37 53 52 45 38 33 28 22 22 22 23 22 26 29 32 33 28 24 21 18 15 16 21 26 28 29 33 35 36
30 12 14 10 7 11 14 30 6 3 28 15 14 10 18 13 11 49 42 40 38 54 53 47 39 31 29 22 22 19 18 21 29 30 28 31 33 31 27 26 29 27 26 30 31 31 33 35 36
28 27 13 7 8 20 15 24 14 11 18 4 9 4 6 17 26 24 44 49 38 47 50 47 40 34 30 25 19 17 20 25 32 35 22 27 32 32 32 32 33 31 31 32 32 33 33 35 37
27 20 16 12 21 28 19 12 19 14 5 15 15 20 23 20 12 28 48 49 38 44 42 46 41 35 28 22 18 19 26 29 33 34 28 26 31 32 33 33 32 32 33 34 32 31 32 33 34
33 19 12 15 27 24 5 33 17 15 18 10 5 17 21 18 24 49 48 45 34 45 38 41 39 34 28 23 20 26 27 31 34 35 33 23 25 28 30 32 32 31 31 31 31 30 29 29 30
18 26 13 22 28 28 15 28 2 10 17 15 3 18 11 24 31 43 48 45 42 45 37 40 37 33 28 23 24 28 26 31 35 34 31 23 22 26 27 28 27 27 27 27 27 26 26 26 24
15 13 22 28 28 12 22 21 11 4 13 13 17 13 17 28 48 51 45 42 45 39 35 42 38 33 28 24 27 25 26 29 32 33 26 22 25 25 24 24 25 22 20 19 19 19 19 19 18
18 5 24 27 28 15 22 15 18 19 10 8 17 8 14 31 40 52 56 47 42 34 33 38 37 34 30 28 27 21 23 30 32 31 28 22 18 19 18 19 18 17 14 12 11 10 11 11 11
16 9 18 31 16 18 36 12 6 16 24 29 16 19 28 30 39 52 54 47 36 31 36 31 33 27 26 31 29 20 21 29 32 32 27 19 12 12 11 11 11 8 8 7 6 4 3 3 4
14 7 16 24 14 30 31 29 21 15 19 22 29 19 24 32 39 46 56 48 33 36 45 33 30 31 28 25 25 19 16 22 25 27 28 18 6 8 11 3 2 2 2 2 2 1 1 2 4
10 10 19 5 36 22 5 31 28 30 13 26 18 18 26 35 36 41 49 49 44 36 39 39 36 35 32 28 23 13 12 17 19 25 25 24 19 16 9 7 7 7 5 5 2 2 2 6 2
4 29 29 20 18 6 10 16 14 13 24 29 22 17 31 33 37 39 42 51 44 37 43 38 35 35 33 31 29 17 10 14 13 12 18 25 25 15 12 6 8 8 3 8 9 8 10 9 8
19 15 24 16 20 23 21 12 11 34 34 27 24 21 25 35 39 39 43 36 46 44 44 46 43 38 35 33 36 31 19 22 27 28 25 25 20 16 17 15 16 10 9 10 8 7 9 9 8
33 24 32 18 9 14 16 17 0 40 29 22 22 24 21 25 38 42 37 39 41 42 40 49 45 40 38 34 36 29 28 23 21 25 29 27 21 20 21 19 17 15 14 11 8 6 9 10 11
37 24 25 26 43 7 12 16 12 19 36 25 20 19 20 20 27 44 41 38 37 40 50 48 56 43 43 42 37 36 37 27 26 24 21 30 32 28 25 20 13 15 14 13 12 15 16 15 14
27 22 6 12 13 7 9 26 14 32 28 26 30 28 22 20 21 30 36 35 34 38 38 41 50 48 55 43 43 45 42 38 30 29 23 23 25 27 24 20 22 15 15 16 16 16 17 17 17
13 8 19 11 25 9 15 9 21 51 43 36 33 34 34 27 20 18 37 43 34 28 29 35 35 39 45 55 46 40 39 33 32 24 25 24 23 22 21 18 15 16 19 20 18 19 22 23 21
19 29 25 22 22 20 19 20 20 22 22 17 23 31 37 39 36 30 27 39 42 37 33 34 35 29 24 40 46 46 44 39 37 34 29 23 21 23 22 21 19 17 20 25 25 25 24 26 28
13 17 22 28 28 24 35 24 22 32 30 25 32 38 44 48 46 44 35 33 41 46 43 44 43 36 35 41 53 54 54 47 47 40 35 29 27 23 26 23 22 23 27 27 29 25 29 31 30
6 18 21 22 20 24 15 22 24 24 30 44 38 35 42 42 44 56 44 39 43 44 46 40 41 42 41 43 44 45 49 44 43 44 39 40 36 34 36 34 32 28 30 34 36 36 34 38 37
14 22 12 10 13 8 6 15 21 27 43 43 44 39 39 38 33 59 52 46 45 48 47 48 49 45 44 46 43 40 37 34 36 33 32 32 34 33 31 34 35 37 39 38 37 35 34 39 39
12 4 15 11 7 6 16 8 16 33 26 24 41 44 43 44 52 33 57 54 50 48 54 47 51 51 53 53 45 36 36 32 28 27 25 27 34 30 33 35 38 42 44 45 45 45 43 42 42
5 12 13 7 9 11 7 6 14 4 29 29 34 47 48 50 51 48 59 61 53 49 50 50 51 51 55 51 47 44 42 35 35 33 31 39 41 36 35 38 41 44 45 46 46 47 46 44 42
9 2 6 6 3 3 14 12 10 11 13 10 27 54 56 52 51 41 47 48 44 40 43 41 42 43 44 51 50 45 46 47 49 43 40 43 44 38 38 43 45 47 46 45 44 43 43 44 43
12 10 4 1 4 9 8 12 19 14 7 4 8 6 27 51 52 46 41 44 45 39 36 32 35 37 39 42 44 42 41 41 41 39 37 35 36 40 43 40 39 40 38 37 37 37 37 38 38
12 11 6 8 7 9 17 11 10 12 10 16 21 10 12 10 14 52 50 41 45 45 43 33 33 36 39 39 38 37 39 39 39 37 35 35 37 39 38 36 35 35 35 35 35 35 36 36 36
12 11 8 5 12 3 9 11 13 17 9 4 5 6 13 14 14 29 40 46 50 49 45 37 39 35 38 41 43 41 39 39 38 35 34 34 36 35 37 37 38 39 40 40 39 38 42 42 36
3 5 5 3 4 7 7 11 10 3 14 14 7 10 10 12 16 19 35 35 43 48 41 30 32 37 40 37 36 33 33 35 39 40 33 32 36 37 38 39 39 39 39 38 37 37 41 41 38
9 3 8 2 7 5 3 4 10 12 17 17 20 15 9 3 10 17 21 34 42 40 43 44 47 42 46 44 39 38 41 40 34 28 30 32 34 36 37 38 38 38 37 37 36 37 39 37 36
16 17 12 5 7 6 6 9 4 15 15 14 23 16 11 9 6 17 25 26 34 43 45 41 47 50 50 46 51 30 28 30 30 28 29 31 34 34 35 36 37 38 37 36 37 37 37 37 37
Wind_Direction_500mb
188 153 99 216 202 231 224 245 256 147 104 54 32 44 95 63 336 127 140 158 177 157 157 153 147 142 129 126 118 113 101 94 105 98 86 94 122 134 137 139 134 118 101 93 93 91 92 92 92
166 163 194 245 228 209 229 227 151 338 66 65 38 356 67 62 81 128 136 166 165 154 154 151 149 144 132 140 125 115 108 110 116 101 86 90 98 104 112 111 110 109 104 98 98 99 97 95 95
171 181 196 204 216 225 219 208 144 87 62 353 118 113 39 69 120 116 143 145 154 153 154 153 151 145 142 137 128 119 118 124 125 117 100 92 93 97 101 105 110 112 108 104 101 100 99 98 98
173 198 259 228 208 227 242 207 144 101 96 240 147 101 82 84 104 142 145 148 157 145 157 154 151 147 147 142 129 124 126 128 132 126 116 101 95 95 100 105 108 110 108 104 101 100 100 98 99
210 205 227 210 240 210 155 57 90 154 153 204 256 90 86 63 96 136 143 147 148 148 161 155 149 148 150 144 135 132 129 133 136 134 122 119 101 97 101 105 108 108 105 103 100 96 96 99 101
203 212 211 205 214 230 97 123 210 309 154 105 95 102 84 119 130 142 147 147 153 166 171 160 155 154 157 153 142 137 132 137 141 140 132 134 122 109 102 104 105 107 107 105 102 100 99 97 98
212 208 218 219 198 164 111 135 185 316 178 49 328 114 120 155 141 148 151 148 175 175 174 164 158 163 163 157 153 141 139 141 145 146 137 140 127 115 108 104 105 106 105 104 103 101 98 95 95
215 268 231 221 211 126 124 142 77 20 56 41 14 102 135 156 158 161 153 149 178 174 179 166 168 172 170 161 159 145 145 149 150 154 154 159 127 117 120 114 109 112 114 112 108 101 96 92 92
194 207 217 234 189 167 138 109 62 98 97 71 72 96 124 151 163 178 155 139 157 172 162 178 170 176 179 175 170 159 153 158 159 159 158 147 139 139 131 130 115 118 119 112 105 106 109 108 99
198 206 219 233 7 187 146 146 156 136 127 105 99 89 135 155 164 166 170 152 150 162 170 172 178 177 177 186 177 167 158 165 163 145 143 135 118 155 148 134 166 166 160 150 140 165 251 268 219
197 226 235 211 79 24 125 177 166 156 137 126 105 124 134 157 163 171 176 182 142 165 173 171 186 193 183 187 180 176 165 155 148 149 140 123 210 225 236 243 252 253 258 270 294 296 287 221 22
317 242 266 35 89 190 279 139 163 213 121 121 113 137 150 160 166 172 176 186 176 166 182 182 193 192 191 192 162 197 182 153 205 196 152 182 211 219 208 248 249 261 297 295 322 324 330 322 288
230 289 269 296 144 157 265 301 141 107 123 130 115 122 151 172 172 174 178 193 193 186 189 186 186 194 198 196 167 178 201 193 191 196 191 207 198 227 193 212 242 229 220 234 259 277 268 306 311
198 229 285 266 251 211 264 170 202 139 143 138 133 130 135 177 184 181 174 183 185 193 197 199 199 188 202 209 187 180 208 217 209 221 199 197 207 215 217 222 224 231 233 226 234 267 289 259 280
151 190 250 189 237 135 266 249 188 181 156 162 156 139 141 165 178 198 197 190 191 199 197 191 203 197 194 214 200 198 188 210 200 226 240 217 203 219 227 216 230 232 237 227 238 229 249 262 262
143 190 139 315 195 162 232 246 179 235 171 199 191 180 170 169 179 184 197 194 201 213 212 212 207 204 202 205 210 214 211 213 208 226 227 247 224 223 221 211 215 226 246 246 239 254 265 272 274
210 156 185 214 249 165 224 227 231 207 214 194 216 217 194 187 180 192 201 186 207 204 217 211 215 215 211 212 210 211 215 218 212 222 220 234 225 226 217 216 226 236 244 258 262 261 264 267 272
197 215 193 185 201 231 215 250 285 264 186 197 212 243 246 200 199 194 199 196 190 197 216 214 214 221 227 211 205 206 211 210 207 208 210 226 228 226 234 224 225 232 245 268 267 267 266 270 275
213 213 240 194 169 209 221 212 215 244 176 207 227 234 241 243 207 202 222 203 196 196 208 218 211 204 206 205 209 209 206 206 210 209 207 211 219 224 234 250 236 248 251 256 267 261 260 271 278
241 223 230 75 164 181 235 223 240 249 219 192 212 230 243 239 219 202 213 214 210 209 201 208 210 211 211 213 214 217 211 211 210 209 213 218 218 223 231 239 242 241 243 250 255 256 255 266 266
224 218 169 167 184 218 301 284 254 228 241 239 212 217 238 247 248 197 205 215 217 218 212 208 211 216 214 218 216 214 214 214 224 227 230 230 230 233 245 252 257 252 252 257 260 258 254 260 265
223 14 66 320 157 225 163 270 219 229 224 218 225 216 225 240 242 239 214 209 215 214 217 213 215 217 222 214 221 220 221 226 225 228 237 269 267 256 262 264 265 266 266 267 265 262 260 259 261
304 124 153 241 260 326 251 264 270 232 218 219 211 221 222 226 230 250 214 206 206 208 210 209 215 217 220 218 219 217 222 227 234 231 241 258 265 264 267 269 270 272 273 273 273 270 265 259 256
92 253 140 112 354 293 230 214 265 255 237 193 199 212 220 224 223 236 200 196 195 202 211 207 207 210 220 222 217 217 223 221 229 232 229 246 254 264 271 273 274 273 273 274 273 272 271 269 260
217 177 104 320 217 226 218 223 248 285 349 124 127 25 224 214 219 213 206 198 202 201 198 205 211 213 217 224 212 213 224 227 231 236 243 247 258 269 275 277 275 274 274 273 273 274 273 272 268
212 213 150 224 208 230 196 238 251 255 22 17 212 204 271 280 212 205 210 214 219 212 214 220 215 216 215 219 221 216 220 228 236 242 246 253 263 272 275 274 272 273 273 274 274 275 273 272 272
220 225 303 319 248 327 192 253 298 260 170 133 192 202 204 248 241 191 208 206 211 214 219 222 214 216 222 216 215 217 223 229 232 240 248 253 260 268 271 272 274 276 275 276 276 275 274 274 270
296 19 169 203 215 230 263 253 236 171 178 176 120 119 181 196 229 232 213 210 209 220 212 209 224 231 226 222 224 222 228 241 244 243 248 267 273 271 272 275 276 276 278 279 278 274 270 273 271
154 146 228 266 249 183 293 268 316 100 86 82 75 64 53 71 221 221 228 218 207 214 218 215 232 234 231 225 222 233 233 229 233 248 263 266 269 273 277 278 279 280 281 281 279 274 274 272 268
240 198 192 183 183 229 133 273 60 98 91 78 121 117 94 75 194 209 226 227 210 219 219 225 225 237 231 226 253 249 238 240 252 258 260 263 267 271 274 276 276 278 279 277 275 273 268 264 262
Wind_Speed_850mb
26 24 10 8 3 7 15 14 13 8 5 17 17 17 17 40 13 19 47 38 37 53 52 45 38 33 28 22 22 22 23 22 26 29 32 33 28 24 21 18 15 16 21 26 28 29 33 35 36
30 12 14 10 7 11 14 30 6 3 28 15 14 10 18 13 11 49 42 40 38 54 53 47 39 31 29 22 22 19 18 21 29 30 28 31 33 31 27 26 29 27 26 30 31 31 33 35 36
28 27 13 7 8 20 15 24 14 11 18 4 9 4 6 17 26 24 44 49 38 47 50 47 40 34 30 25 19 17 20 25 32 35 22 27 32 32 32 32 33 31 31 32 32 33 33 35 37
27 20 16 12 21 28 19 12 19 14 5 15 15 20 23 20 12 28 48 49 38 44 42 46 41 35 28 22 18 19 26 29 33 34 28 26 31 32 33 33 32 32 33 34 32 31 32 33 34
33 19 12 15 27 24 5 33 17 15 18 10 5 17 21 18 24 49 48 45 34 45 38 41 39 34 28 23 20 26 27 31 34 35 33 23 25 28 30 32 32 31 31 31 31 30 29 29 30
18 26 13 22 28 28 15 28 2 10 17 15 3 18 11 24 31 43 48 45 42 45 37 40 37 33 28 23 24 28 26 31 35 34 31 23 22 26 27 28 27 27 27 27 27 26 26 26 24
15 13 22 28 28 12 22 21 11 4 13 13 17 13 17 28 48 51 45 42 45 39 35 42 38 33 28 24 27 25 26 29 32 33 26 22 25 25 24 24 25 22 20 19 19 19 19 19 18
18 5 24 27 28 15 22 15 18 19 10 8 17 8 14 31 40 52 56 47 42 34 33 38 37 34 30 28 27 21 23 30 32 31 28 22 18 19 18 19 18 17 14 12 11 10 11 11 11
16 9 18 31 16 18 36 12 6 16 24 29 16 19 28 30 39 52 54 47 36 31 36 31 33 27 26 31 29 20 21 29 32 32 27 19 12 12 11 11 11 8 8 7 6 4 3 3 4
14 7 16 24 14 30 31 29 21 15 19 22 29 19 24 32 39 46 56 48 33 36 45 33 30 31 28 25 25 19 16 22 25 27 28 18 6 8 11 3 2 2 2 2 2 1 1 2 4
10 10 19 5 36 22 5 31 28 30 13 26 18 18 26 35 36 41 49 49 44 36 39 39 36 35 32 28 23 13 12 17 19 25 25 24 19 16 9 7 7 7 5 5 2 2 2 6 2
4 29 29 20 18 6 10 16 14 13 24 29 22 17 31 33 37 39 42 51 44 37 43 38 35 35 33 31 29 17 10 14 13 12 18 25 25 15 12 6 8 8 3 8 9 8 10 9 8
19 15 24 16 20 23 21 12 11 34 34 27 24 21 25 35 39 39 43 36 46 44 44 46 43 38 35 33 36 31 19 22 27 28 25 25 20 16 17 15 16 10 9 10 8 7 9 9 8
33 24 32 18 9 14 16 17 0 40 29 22 22 24 21 25 38 42 37 39 41 42 40 49 45 40 38 34 36 29 28 23 21 25 29 27 21 20 21 19 17 15 14 11 8 6 9 10 11
37 24 25 26 43 7 12 16 12 19 36 25 20 19 20 20 27 44 41 38 37 40 50 48 56 43 43 42 37 36 37 27 26 24 21 30 32 28 25 20 13 15 14 13 12 15 16 15 14
27 22 6 12 13 7 9 26 14 32 28 26 30 28 22 20 21 30 36 35 34 38 38 41 50 48 55 43 43 45 42 38 30 29 23 23 25 27 24 20 22 15 15 16 16 16 17 17 17
13 8 19 11 25 9 15 9 21 51 43 36 33 34 34 27 20 18 37 43 34 28 29 35 35 39 45 55 46 40 39 33 32 24 25 24 23 22 21 18 15 16 19 20 18 19 22 23 21
19 29 25 22 22 20 19 20 20 22 22 17 23 31 37 39 36 30 27 39 42 37 33 34 35 29 24 40 46 46 44 39 37 34 29 23 21 23 22 21 19 17 20 25 25 25 24 26 28
13 17 22 28 28 24 35 24 22 32 30 25 32 38 44 48 46 44 35 33 41 46 43 44 43 36 35 41 53 54 54 47 47 40 35 29 27 23 26 23 22 23 27 27 29 25 29 31 30
6 18 21 22 20 24 15 22 24 24 30 44 38 35 42 42 44 56 44 39 43 44 46 40 41 42 41 43 44 45 49 44 43 44 39 40 36 34 36 34 32 28 30 34 36 36 34 38 37
14 22 12 10 13 8 6 15 21 27 43 43 44 39 39 38 33 59 52 46 45 48 47 48 49 45 44 46 43 40 37 34 36 33 32 32 34 33 31 34 35 37 39 38 37 35 34 39 39
12 4 15 11 7 6 16 8 16 33 26 24 41 44 43 44 52 33 57 54 50 48 54 47 51 51 53 53 45 36 36 32 28 27 25 27 34 30 33 35 38 42 44 45 45 45 43 42 42
5 12 13 7 9 11 7 6 14 4 29 29 34 47 48 50 51 48 59 61 53 49 50 50 51 51 55 51 47 44 42 35 35 33 31 39 41 36 35 38 41 44 45 46 46 47 46 44 42
9 2 6 6 3 3 14 12 10 11 13 10 27 54 56 52 51 41 47 48 44 40 43 41 42 43 44 51 50 45 46 47 49 43 40 43 44 38 38 43 45 47 46 45 44 43 43 44 43
12 10 4 1 4 9 8 12 19 14 7 4 8 6 27 51 52 46 41 44 45 39 36 32 35 37 39 42 44 42 41 41 41 39 37 35 36 40 43 40 39 40 38 37 37 37 37 38 38
12 11 6 8 7 9 17 11 10 12 10 16 21 10 12 10 14 52 50 41 45 45 43 33 33 36 39 39 38 37 39 39 39 37 35 35 37 39 38 36 35 35 35 35 35 35 36 36 36
12 11 8 5 12 3 9 11 13 17 9 4 5 6 13 14 14 29 40 46 50 49 45 37 39 35 38 41 43 41 39 39 38 35 34 34 36 35 37 37 38 39 40 40 39 38 42 42 36
3 5 5 3 4 7 7 11 10 3 14 14 7 10 10 12 16 19 35 35 43 48 41 30 32 37 40 37 36 33 33 35 39 40 33 32 36 37 38 39 39 39 39 38 37 37 41 41 38
9 3 8 2 7 5 3 4 10 12 17 17 20 15 9 3 10 17 21 34 42 40 43 44 47 42 46 44 39 38 41 40 34 28 30 32 34 36 37 38 38 38 37 37 36 37 39 37 36
16 17 12 5 7 6 6 9 4 15 15 14 23 16 11 9 6 17 25 26 34 43 45 41 47 50 50 46 51 30 28 30 30 28 29 31 34 34 35 36 37 38 37 36 37 37 37 37 37
Wind_Direction_850mb
188 153 99 216 202 231 224 245 256 147 104 54 32 44 95 63 336 127 140 158 177 157 157 153 147 142 129 126 118 113 101 94 105 98 86 94 122 134 137 139 134 118 101 93 93 91 92 92 92
166 163 194 245 228 209 229 227 151 338 66 65 38 356 67 62 81 128 136 166 165 154 154 151 149 144 132 140 125 115 108 110 116 101 86 90 98 104 112 111 110 109 104 98 98 99 97 95 95
171 181 196 204 216 225 219 208 144 87 62 353 118 113 39 69 120 116 143 145 154 153 154 153 151 145 142 137 128 119 118 124 125 117 100 92 93 97 101 105 110 112 108 104 101 100 99 98 98
173 198 259 228 208 227 242 207 144 101 96 240 147 101 82 84 104 142 145 148 157 145 157 154 151 147 147 142 129 124 126 128 132 126 116 101 95 95 100 105 108 110 108 104 101 100 100 98 99
210 205 227 210 240 210 155 57 90 154 153 204 256 90 86 63 96 136 143 147 148 148 161 155 149 148 150 144 135 132 129 133 136 134 122 119 101 97 101 105 108 108 105 103 100 96 96 99 101
203 212 211 205 214 230 97 123 210 309 154 105 95 102 84 119 130 142 147 147 153 166 171 160 155 154 157 153 142 137 132 137 141 140 132 134 122 109 102 104 105 107 107 105 102 100 99 97 98
212 208 218 219 198 164 111 135 185 316 178 49 328 114 120 155 141 148 151 148 175 175 174 164 158 163 163 157 153 141 139 141 145 146 137 140 127 115 108 104 105 106 105 104 103 101 98 95 95
215 268 231 221 211 126 124 142 77 20 56 41 14 102 135 156 158 161 153 149 178 174 179 166 168 172 170 161 159 145 145 149 150 154 154 159 127 117 120 114 109 112 114 112 108 101 96 92 92
194 207 217 234 189 167 138 109 62 98 97 71 72 96 124 151 163 178 155 139 157 172 162 178 170 176 179 175 170 159 153 158 159 159 158 147 139 139 131 130 115 118 119 112 105 106 109 108 99
198 206 219 233 7 187 146 146 156 136 127 105 99 89 135 155 164 166 170 152 150 162 170 172 178 177 177 186 177 167 158 165 163 145 143 135 118 155 148 134 166 166 160 150 140 165 251 268 219
197 226 235 211 79 24 125 177 166 156 137 126 105 124 134 157 163 171 176 182 142 165 173 171 186 193 183 187 180 176 165 155 148 149 140 123 210 225 236 243 252 253 258 270 294 296 287 221 22
317 242 266 35 89 190 279 139 163 213 121 121 113 137 150 160 166 172 176 186 176 166 182 182 193 192 191 192 162 197 182 153 205 196 152 182 211 219 208 248 249 261 297 295 322 324 330 322 288
230 289 269 296 144 157 265 301 141 107 123 130 115 122 151 172 172 174 178 193 193 186 189 186 186 194 198 196 167 178 201 193 191 196 191 207 198 227 193 212 242 229 220 234 259 277 268 306 311
198 229 285 266 251 211 264 170 202 139 143 138 133 130 135 177 184 181 174 183 185 193 197 199 199 188 202 209 187 180 208 217 209 221 199 197 207 215 217 222 224 231 233 226 234 267 289 259 280
151 190 250 189 237 135 266 249 188 181 156 162 156 139 141 165 178 198 197 190 191 199 197 191 203 197 194 214 200 198 188 210 200 226 240 217 203 219 227 216 230 232 237 227 238 229 249 262 262
143 190 139 315 195 162 232 246 179 235 171 199 191 180 170 169 179 184 197 194 201 213 212 212 207 204 202 205 210 214 211 213 208 226 227 247 224 223 221 211 215 226 246 246 239 254 265 272 274
210 156 185 214 249 165 224 227 231 207 214 194 216 217 194 187 180 192 201 186 207 204 217 211 215 215 211 212 210 211 215 218 212 222 220 234 225 226 217 216 226 236 244 258 262 261 264 267 272
197 215 193 185 201 231 215 250 285 264 186 197 212 243 246 200 199 194 199 196 190 197 216 214 214 221 227 211 205 206 211 210 207 208 210 226 228 226 234 224 225 232 245 268 267 267 266 270 275
213 213 240 194 169 209 221 212 215 244 176 207 227 234 241 243 207 202 222 203 196 196 208 218 211 204 206 205 209 209 206 206 210 209 207 211 219 224 234 250 236 248 251 256 267 261 260 271 278
241 223 230 75 164 181 235 223 240 249 219 192 212 230 243 239 219 202 213 214 210 209 201 208 210 211 211 213 214 217 211 211 210 209 213 218 218 223 231 239 242 241 243 250 255 256 255 266 266
224 218 169 167 184 218 301 284 254 228 241 239 212 217 238 247 248 197 205 215 217 218 212 208 211 216 214 218 216 214 214 214 224 227 230 230 230 233 245 252 257 252 252 257 260 258 254 260 265
223 14 66 320 157 225 163 270 219 229 224 218 225 216 225 240 242 239 214 209 215 214 217 213 215 217 222 214 221 220 221 226 225 228 237 269 267 256 262 264 265 266 266 267 265 262 260 259 261
304 124 153 241 260 326 251 264 270 232 218 219 211 221 222 226 230 250 214 206 206 208 210 209 215 217 220 218 219 217 222 227 234 231 241 258 265 264 267 269 270 272 273 273 273 270 265 259 256
92 253 140 112 354 293 230 214 265 255 237 193 199 212 220 224 223 236 200 196 195 202 211 207 207 210 220 222 217 217 223 221 229 232 229 246 254 264 271 273 274 273 273 274 273 272 271 269 260
217 177 104 320 217 226 218 223 248 285 349 124 127 25 224 214 219 213 206 198 202 201 198 205 211 213 217 224 212 213 224 227 231 236 243 247 258 269 275 277 275 274 274 273 273 274 273 272 268
212 213 150 224 208 230 196 238 251 255 22 17 212 204 271 280 212 205 210 214 219 212 214 220 215 216 215 219 221 216 220 228 236 242 246 253 263 272 275 274 272 273 273 274 274 275 273 272 272
220 225 303 319 248 327 192 253 298 260 170 133 192 202 204 248 241 191 208 206 211 214 219 222 214 216 222 216 215 217 223 229 232 240 248 253 260 268 271 272 274 276 275 276 276 275 274 274 270
296 19 169 203 215 230 263 253 236 171 178 176 120 119 181 196 229 232 213 210 209 220 212 209 224 231 226 222 224 222 228 241 244 243 248 267 273 271 272 275 276 276 278 279 278 274 270 273 271
154 146 228 266 249 183 293 268 316 100 86 82 75 64 53 71 221 221 228 218 207 214 218 215 232 234 231 225 222 233 233 229 233 248 263 266 269 273 277 278 279 280 281 281 279 274 274 272 268
240 198 192 183 183 229 133 273 60 98 91 78 121 117 94 75 194 209 226 227 210 219 219 225 225 237 231 226 253 249 238 240 252 258 260 263 267 271 274 276 276 278 279 277 275 273 268 264 262